Location: Lincolnton
(35.4660°N, 81.2500°W)
Time: 04:10:53
(UTC-04:00)

Hubble Space Telescope - Visible Passes

Search period start: 24 March 2017 00:00
Search period end: 03 April 2017 00:00
Orbit: 538 x 542 km, 28.5° (Epoch: 22 March)

Date Brightness Start Highest point End Pass type
(mag) Time Alt. Az. Time Alt. Az. Time Alt. Az.
25 Mar 3.2 05:33:51 12° SSE 05:34:19 12° SSE 05:35:50 10° SE visible
26 Mar 3.1 05:24:27 14° SSE 05:24:27 14° SSE 05:26:27 10° SE visible
27 Mar 3.0 05:14:59 16° SE 05:14:59 16° SE 05:16:48 10° ESE visible
27 Mar 2.1 06:51:12 10° SW 06:54:48 29° S 06:58:25 10° ESE visible
28 Mar 3.1 05:05:30 16° SE 05:05:30 16° SE 05:07:02 10° ESE visible
28 Mar 2.0 06:41:06 10° WSW 06:44:45 30° S 06:48:24 10° ESE visible
29 Mar 3.2 04:56:00 16° SE 04:56:00 16° SE 04:57:10 10° ESE visible
29 Mar 1.9 06:31:22 12° WSW 06:34:41 31° S 06:38:21 10° ESE visible
30 Mar 3.4 04:46:30 14° ESE 04:46:30 14° ESE 04:47:14 10° ESE visible
30 Mar 1.9 06:21:52 15° WSW 06:24:37 30° S 06:28:16 10° ESE visible
31 Mar 3.6 04:37:01 11° ESE 04:37:01 11° ESE 04:37:17 10° ESE visible
31 Mar 1.9 06:12:23 18° SW 06:14:33 29° S 06:18:10 10° SE visible
01 Apr 2.0 06:02:56 21° SW 06:04:30 27° S 06:08:02 10° SE visible
02 Apr 2.0 05:53:32 23° SSW 05:54:25 25° S 05:57:50 10° SE visible
